Regional Weather Roundup
Issued by NWS

Home | Current Version | Previous Version | Graphics & Text | Print | Product List | Glossary On
Versions: 1 2 3 4 5 6 7 8 9 10 11 12 13 14 15 16 17 18 19 20 21 22 23 24 25 26 27 28 29 30 31 32 33 34 35 36 37 38 39 40 41 42 43 44 45 46 47 48 49 50
000
ASUS43 KMPX 271101
RWRMN
WEATHER ROUNDUP FOR MINNESOTA
NATIONAL WEATHER SERVICE TWIN CITIES/CHANHASSEN MN
500 AM CST TUE JAN 27 2015


NOTE: "FAIR" INDICATES FEW OR NO CLOUDS BELOW 12,000 FEET WITH NO
SIGNIFICANT WEATHER AND/OR OBSTRUCTIONS TO VISIBILITY. N/A MEANS
CURRENT SKY AND/OR WEATHER CONDITIONS ARE NOT AVAILABLE.

MNZ060>063-068>070-271200-
   Twin Cities Metro

CITY           SKY/WX    TMP DP  RH WIND       PRES   REMARKS
TWIN CITIES    CLOUDY    33  25  72 N7        30.08R WCI  27
ST PAUL        CLOUDY    33  26  75 NE7       30.09R WCI  27
CRYSTAL        CLOUDY    34  25  69 N3        30.07R
BLAINE         CLOUDY    34  28  80 NE5       30.08R WCI  30
LAKEVILLE      CLOUDY    32  27  80 N5        30.07R WCI  27
EDEN PRAIRIE   CLOUDY    33  25  72 NE8       30.07R WCI  26
SOUTH ST PAUL  CLOUDY    34  26  74 NE3       30.08R
LAKE ELMO      CLOUDY    32  28  86 N5        30.09R WCI  27
$$
MNZ001>005-007-008-013>017-022>024-027-028-271200-
   Northwest Minnesota

CITY           SKY/WX    TMP DP  RH WIND       PRES   REMARKS
BEMIDJI        CLOUDY    24  23  97 CALM      30.04R FOG
HALLOCK        FOG       25  21  86 SE9       30.03S VSB 1/2 WCI  15
ROSEAU         HAZE      23  18  80 S7        30.04R VSB 3/4 WCI  15
WARROAD        FOG       21  18  86 S6        30.04S VSB 3/4 WCI  14
THIEF RVR FALL CLOUDY    25  23  93 S6        30.04R VSB 1/4 WCI  18
CROOKSTON      FOG       25  25 100 S7        30.05F VSB 1/4 WCI  17
FOSSTON        FOG       23  21  93 CALM      30.05R VSB 3/4
DETROIT LAKES  FOG       27  27 100 SE6       30.04S VSB 1/2 WCI  20
MOORHEAD       CLOUDY    27  27 100 SE5       30.06S FOG     WCI  21
PARK RAPIDS    CLOUDY    27  24  89 CALM      30.04R
MAHNOMEN       CLOUDY    25  24  97 S3        30.04R FOG
$$
MNZ006-009>011-018-025>026-271200-
   North Central Minnesota

CITY           SKY/WX    TMP DP  RH WIND       PRES   REMARKS
BAUDETTE       CLOUDY    23  21  92 CALM      30.03S
FLAG ISLAND    CLOUDY    21  19  93 S6        30.02S FOG     WCI  14
INTL FALLS     CLOUDY    22  20  92 W3        30.05S
WASKISH        CLOUDY    25  25 100 CALM      30.05S
BIG FORK       CLOUDY    27  23  86 CALM      30.05S
LONGVILLE      CLOUDY    28  25  86 CALM      30.05R
GRAND RAPIDS   CLOUDY    25  21  86 CALM      30.05R
CRANE LAKE     CLOUDY    23  21  93 CALM      30.07S
ORR            CLOUDY    23  19  86 CALM      30.03S
COOK           CLOUDY    25  21  86 CALM      30.05S
WALKER         CLOUDY    26  24  91 CALM      30.04S
$$
MNZ012-019>021-037-271200-
   Northeast Minnesota

CITY           SKY/WX    TMP DP  RH WIND       PRES   REMARKS
DULUTH         CLOUDY    26  21  81 CALM      30.05R
ELY            CLOUDY    21  19  93 CALM      30.04S
HIBBING        CLOUDY    26  21  81 NE3       30.05R
EVELETH        CLOUDY    27  23  86 CALM      30.06R
DULUTH HARBOR  CLOUDY    28  25  86 NE8       30.11R WCI  20
TWO HARBORS    CLOUDY    27  21  80 CALM      30.06R
SILVER BAY     CLOUDY    25  21  86 CALM      30.06R
GRAND MARAIS     N/A     24  18  77 NW6       30.10R WCI  17
G MARAIS ARPRT CLOUDY    18  12  79 CALM      30.03R
$$
MNZ029>031-032-039>041-046>048-054>057-064-271200-
   West Central Minnesota

CITY           SKY/WX    TMP DP  RH WIND       PRES   REMARKS
FERGUS FALLS   FOG       27  27 100 SE5       30.09R VSB 1   WCI  21
WHEATON        CLOUDY    27  27 100 E5        30.09R WCI  21
MORRIS         CLOUDY    28  28 100 SE6       30.06S FOG     WCI  22
ALEXANDRIA     CLOUDY    28  26  92 CALM      30.06R
ELBOW LAKE     CLOUDY    26  26  99 E6        30.06S FOG     WCI  20
WADENA         CLOUDY    27  25  93 CALM      30.05R
GLENWOOD       CLOUDY    28  27  93 CALM      30.07R
APPLETON       CLOUDY    30  28  93 CALM      30.07S
BENSON         CLOUDY    28  27  93 SE3       30.07S
ORTONVILLE     CLOUDY    27  27 100 E5        30.07R FOG     WCI  21
MADISON        CLOUDY    32  30  93 E3        30.07S FOG
WILLMAR        CLOUDY    30  27  86 CALM      30.08S
$$
MNZ033>034-036-042>043-049>051-058-059-271200-
   Central Minnesota

CITY           SKY/WX    TMP DP  RH WIND       PRES   REMARKS
ST CLOUD       CLOUDY    31  26  82 NE5       30.07R WCI  26
SAUK CENTRE    CLOUDY    29  26  90 CALM      30.07R
PAYNESVILLE    CLOUDY    28  26  93 CALM      30.07S
AITKIN         CLOUDY    30  25  80 CALM      30.05R
PINE RIVER     CLOUDY    28  25  86 CALM      30.08S
BRAINERD       CLOUDY    30  25  81 CALM      30.06R
STAPLES        CLOUDY    27  25  93 CALM      30.05S
LONG PRAIRIE   CLOUDY    28  27  93 E5        30.06R WCI  23
LITTLE FALLS   CLOUDY    32  27  80 CALM      30.06S
LITCHFIELD     CLOUDY    32  30  93 CALM      30.08R
BUFFALO        CLOUDY    32  26  79 NE6       30.08R WCI  26
MAPLE LAKE     CLOUDY    33  29  85 N3        30.08R
$$
MNZ037-044-045-052-053-271200-
   East Central Minnesota

CITY           SKY/WX    TMP DP  RH WIND       PRES   REMARKS
PRINCETON      CLOUDY    34  27  75 CALM      30.08R
MORA           CLOUDY    32  27  80 CALM      30.09R
CAMBRIDGE      CLOUDY    34  25  69 CALM      30.06S
RUSH CITY      CLOUDY    31  25  79 NE6       30.08S WCI  25
MOOSE LAKE     CLOUDY    30  25  80 CALM      30.06R
HINCKLEY       CLOUDY    30  27  86 NE5       30.08R WCI  25
CLOQUET        CLOUDY    27  21  80 CALM      30.07R
MCGREGOR       CLOUDY    30  27  86 CALM      30.07R
$$
MNZ071>073-080-081-089-090-097-098-271200-
   Southwest Minnesota

CITY           SKY/WX    TMP DP  RH WIND       PRES   REMARKS
MONTEVIDEO     CLOUDY    28  28 100 CALM      30.09R
GRANITE FALLS  CLOUDY    30  28  94 CALM      30.09S
CANBY          CLOUDY    31  30  98 CALM      30.07S FOG
MARSHALL       CLOUDY    28  27  93 CALM      30.08S
REDWOOD FALLS  CLOUDY    32  28  85 CALM      30.08R
OLIVIA         CLOUDY    30  28  93 E3        30.08R
PIPESTONE      FOG       30  28  93 E5        30.03S VSB 3/4 WCI  25
WINDOM         CLOUDY    30  28  93 CALM      30.06R
WORTHINGTON    CLOUDY    30  28  93 N5        30.06R WCI  25
JACKSON        CLOUDY    32  30  93 NE6       30.06R WCI  26
TRACY          FOG       29  29  98 CALM      30.07R VSB 1/4
SLAYTON        FOG       31  30  98 CALM      30.05S VSB 3/4
$$
MNZ065>067-074>077-082>085-091>093-271200-
   South Central Minnesota

CITY           SKY/WX    TMP DP  RH WIND       PRES   REMARKS
MANKATO        CLOUDY    34  27  75 N3        30.07R
NEW ULM        CLOUDY    30  28  93 CALM      30.08S
ST JAMES       CLOUDY    30  28  93 N3        30.09S
FAIRMONT       CLEAR     28  25  86 N5        30.06F WCI  23
GLENCOE        CLOUDY    34  30  85 CALM      30.07S
FARIBAULT      CLOUDY    34  28  80 N3        30.07R
OWATONNA       CLOUDY    34  28  80 N5        30.06R WCI  30
WASECA         CLOUDY    32  30  93 N3        30.08R
ALBERT LEA     CLOUDY    34  30  86 N3        30.05R
$$
MNZ078>079-086>088-094>096-271200-
   Southeast Minnesota

CITY           SKY/WX    TMP DP  RH WIND       PRES   REMARKS
ROCHESTER      CLOUDY    32  28  85 NE7       30.05R WCI  26
RED WING       CLOUDY    34  25  69 NE5       30.08R WCI  30
STANTON        CLOUDY    34  29  80 NE6       30.06R WCI  29
DODGE CENTER   CLOUDY    34  28  80 NE7       30.04S WCI  28
WINONA         CLOUDY    32  27  80 CALM      30.09R
AUSTIN         CLOUDY    34  28  80 N5        30.05R WCI  30
PRESTON        CLOUDY    31  27  87 NE8       30.04S WCI  23
$$
ABBREVIATIONS USED IN REMARKS
   TC - TEMPERATURES IN CELSIUS
  WCI - WIND CHILL INDEX
   HX - HEAT INDEX
  VSB - VISIBILITY
$$


USA.gov is the U.S. government's official web portal to all federal, state and local government web resources and services.